1537790400.25,17154,254.0,73324.0,-6.17,-9.01,-8.29,0,*5D
1537790401.49,17155,254.0,73368.3,-6.19,-9.01,-8.37,0,*5D
1537790402.75,17156,254.0,73360.8,-6.19,-8.71,-7.91,0,*5B
1537790404.02,17157,254.0,73296.8,-6.19,-8.81,-8.11,0,*52
1537790405.25,17158,254.0,73156.8,-6.21,-9.15,-8.37,0,*5E
1537790406.5,17159,254.0,73304.5,-6.23,-8.75,-7.99,0,*51
1537790407.76,17160,254.0,73164.3,-6.21,-8.11,-7.43,0,*5C
1537790408.95,17161,254.0,73188.8,-6.21,-8.21,-7.53,0,*5F
1537790410.2,17162,254.0,73290.5,-6.23,-8.17,-7.57,0,*5F
1537790411.43,17163,254.0,73268.0,-6.23,-8.63,-7.87,0,*50
1537790412.68,17164,254.0,73292.3,-6.23,-8.75,-7.99,0,*5F
1537790413.93,17165,254.0,73380.0,-6.23,-8.75,-7.99,0,*5E
1537790415.15,17166,254.0,73356.3,-6.25,-8.97,-8.11,0,*58
1537790416.41,17167,252.06,73338.0,-6.29,-8.81,-8.03,0,*51
1537790417.63,17168,252.06,73288.5,-6.29,-8.85,-8.17,0,*5F
1537790418.89,17169,252.06,73252.5,-6.29,-8.81,-8.03,0,*5F
1537790420.16,17170,252.06,73204.5,-6.29,-8.81,-8.03,0,*57
1537790421.4,17171,252.06,73196.5,-6.29,-9.11,-8.41,0,*58
1537790422.65,17172,254.0,73230.5,-6.33,-8.85,-8.03,0,*5A
1537790423.89,17173,254.0,73214.8,-6.33,-8.63,-7.95,0,*53
1537790425.14,17174,254.0,73210.3,-6.33,-8.45,-7.77,0,*5C
1537790426.36,17175,254.0,73222.3,-6.31,-8.29,-7.61,0,*52
1537790427.6,17176,254.0,73226.3,-6.33,-8.33,-7.69,0,*50
1537790428.84,17177,254.0,73236.0,-6.33,-8.59,-7.91,0,*5A
1537790430.12,17178,254.0,73254.0,-6.33,-8.51,-7.77,0,*55
1537790431.36,17179,254.0,73252.8,-6.33,-8.37,-7.69,0,*5B
1537790432.58,17180,254.0,73278.3,-6.33,-8.25,-7.53,0,*57
1537790433.82,17181,254.0,73308.0,-6.33,-8.33,-7.57,0,*55
1537790435.04,17182,254.0,73290.8,-6.33,-8.25,-7.53,0,*55
1537790436.28,17183,254.0,73300.5,-6.33,-8.21,-7.31,0,*54
1537790437.5,17184,254.0,73322.0,-6.31,-8.11,-7.49,0,*5D
1537790438.74,17185,254.0,73318.0,-6.35,-8.03,-7.31,0,*54
1537790439.99,17186,252.06,73250.8,-6.35,-8.07,-7.27,0,*54
1537790441.24,17187,252.06,73252.0,-6.35,-7.95,-7.27,0,*51
1537790442.51,17188,254.0,73282.5,-6.33,-7.95,-7.27,0,*58
1537790443.75,17189,252.06,73252.8,-6.33,-7.95,-7.19,0,*54
1537790445.0,17190,252.06,73240.0,-6.33,-7.95,-7.19,0,*5C
1537790446.22,17191,254.0,73242.5,-6.33,-7.53,-6.85,0,*53
1537790447.46,17192,254.0,73256.5,-6.33,-7.31,-6.59,0,*55
1537790448.66,17193,254.0,73258.0,-6.31,-7.15,-6.55,0,*5C
1537790449.87,17194,254.0,73260.3,-6.31,-7.27,-6.59,0,*56
1537790451.07,17195,254.0,73258.5,-6.31,-7.23,-6.43,0,*58
1537790452.29,17196,254.0,73252.8,-6.31,-7.05,-6.31,0,*5A
1537790453.5,17197,254.0,73240.5,-6.29,-6.69,-6.01,0,*5A
1537790454.7,17198,252.06,73244.8,-6.25,-6.77,-6.13,0,*55
1537790455.95,17199,254.0,73252.5,-6.23,-6.51,-5.73,0,*53
1537790457.18,17200,254.0,73248.5,-6.21,-6.35,-5.61,0,*53
1537790458.4,17201,252.06,73246.5,-6.21,-6.47,-5.73,0,*54
1537790459.63,17202,252.06,73228.3,-6.21,-6.51,-5.81,0,*5D
1537790460.86,17203,254.0,73252.8,-6.17,-6.35,-5.69,0,*5D
1537790462.09,17204,254.0,73254.8,-6.17,-6.35,-5.65,0,*56
1537790463.28,17205,252.06,73232.3,-6.17,-6.73,-6.05,0,*50
1537790464.53,17206,254.0,73234.3,-6.19,-6.89,-6.27,0,*58
1537790465.73,17207,252.06,73236.0,-6.13,-6.81,-6.09,0,*57
1537790466.98,17208,254.0,73254.5,-6.13,-6.93,-6.27,0,*57
1537790468.21,17209,254.0,73256.5,-6.13,-7.11,-6.27,0,*5D
1537790469.42,17210,254.0,73252.3,-6.13,-7.19,-6.43,0,*5F
1537790470.64,17211,254.0,73246.5,-6.13,-7.31,-6.43,0,*54
1537790471.89,17212,254.0,73344.3,-6.13,-7.35,-6.63,0,*51
1537790473.14,17213,252.06,73272.0,-6.13,-7.57,-6.63,0,*54
1537790474.34,17214,254.0,73258.3,-6.13,-7.49,-6.69,0,*56
1537790475.56,17215,252.06,73286.5,-6.13,-7.61,-6.77,0,*52
1537790476.79,17216,254.0,73254.0,-6.13,-7.69,-6.81,0,*50
1537790478.04,17217,252.06,73294.0,-6.13,-7.43,-6.63,0,*55
1537790479.24,17218,252.06,73322.5,-6.13,-7.49,-6.77,0,*55
1537790480.46,17219,252.06,73186.8,-6.13,-7.35,-6.55,0,*5F
1537790481.67,17220,252.06,73258.0,-6.13,-7.83,-7.11,0,*59
1537790482.89,17221,252.06,73244.5,-6.13,-8.03,-7.23,0,*5E
1537790484.12,17222,252.06,73250.3,-6.13,-7.99,-7.19,0,*58
1537790485.34,17223,252.06,73272.3,-6.13,-8.25,-7.35,0,*5F
1537790486.57,17224,252.06,73250.0,-6.17,-8.41,-7.65,0,*5B
1537790487.8,17225,254.0,73260.8,-6.17,-8.41,-7.61,0,*5E
1537790489.02,17226,252.06,73268.3,-6.17,-8.41,-7.65,0,*59
1537790490.25,17227,254.0,73286.8,-6.19,-8.63,-7.83,0,*5E
1537790491.48,17228,252.06,73264.8,-6.19,-8.59,-7.83,0,*58
1537790492.72,17229,252.06,73264.0,-6.19,-8.63,-7.83,0,*50
1537790494.0,17230,254.0,73306.5,-6.19,-8.51,-7.77,0,*52
1537790495.22,17231,252.06,73312.8,-6.21,-8.63,-7.91,0,*51
1537790496.5,17232,252.06,73298.3,-6.23,-8.51,-7.65,0,*5A
1537790497.74,17233,252.06,73268.3,-6.25,-8.81,-8.03,0,*5F
1537790498.94,17234,252.06,73218.5,-6.25,-8.97,-8.17,0,*5A
1537790500.19,17235,252.06,73206.8,-6.29,-8.59,-7.77,0,*5C
1537790501.42,17236,252.06,73238.0,-6.25,-7.61,-6.81,0,*5F
1537790502.64,17237,252.06,73258.3,-6.25,-8.21,-7.39,0,*57
1537790503.88,17238,252.06,73244.3,-6.29,-8.67,-7.91,0,*54
1537790505.12,17239,252.06,73206.5,-6.29,-8.29,-7.39,0,*5D
1537790506.39,17240,252.06,73240.3,-6.29,-7.73,-6.97,0,*56
1537790507.64,17241,252.06,73238.3,-6.29,-7.35,-6.55,0,*5B
1537790508.85,17242,252.06,73214.3,-6.29,-7.23,-6.47,0,*5C
1537790510.1,17243,252.06,73214.5,-6.29,-7.61,-6.81,0,*51
1537790511.33,17244,252.06,73260.0,-6.25,-7.31,-6.55,0,*56
1537790512.56,17245,252.06,73276.0,-6.23,-7.19,-6.43,0,*5C
1537790513.83,17246,252.06,73284.0,-6.23,-7.05,-6.23,0,*54
1537790515.1,17247,252.06,73286.8,-6.23,-6.93,-6.23,0,*5B
1537790516.35,17248,252.06,73316.0,-6.21,-6.63,-5.85,0,*56
1537790517.57,17249,252.06,73268.0,-6.19,-6.73,-6.05,0,*56
1537790518.82,17250,252.06,73336.3,-6.19,-7.43,-6.73,0,*5D
1537790520.07,17251,252.06,73348.5,-6.19,-7.69,-6.85,0,*5D
1537790521.32,17252,252.06,73316.5,-6.19,-7.69,-6.89,0,*52
1537790522.56,17253,252.06,73348.3,-6.21,-7.95,-7.05,0,*5E
1537790523.81,17254,252.06,73262.0,-6.21,-8.07,-7.27,0,*5D
1537790525.08,17255,252.06,73270.3,-6.19,-7.91,-7.05,0,*57
1537790526.32,17256,252.06,73252.8,-6.21,-7.77,-7.01,0,*53
1537790527.54,17257,252.06,73250.0,-6.21,-7.65,-6.77,0,*51
1537790528.79,17258,252.06,73248.0,-6.23,-7.43,-6.69,0,*57
1537790530.01,17259,252.06,73264.3,-6.21,-7.83,-7.01,0,*57
1537790531.23,17260,252.06,73294.0,-6.21,-7.83,-7.01,0,*5D
1537790532.48,17261,252.06,73318.3,-6.21,-7.69,-6.97,0,*56
1537790533.72,17262,252.06,73244.3,-6.23,-7.83,-7.05,0,*59
1537790534.97,17263,252.06,73314.5,-6.19,-7.95,-7.15,0,*57
1537790536.22,17264,252.06,73270.8,-6.23,-7.83,-7.01,0,*5B
1537790537.47,17265,252.06,73328.0,-6.23,-7.83,-6.93,0,*50
1537790538.71,17266,252.13,73328.3,-6.23,-7.87,-7.05,0,*59
1537790539.96,17267,252.06,73272.0,-6.23,-7.95,-7.11,0,*5E
1537790541.21,17268,252.13,73248.8,-6.21,-7.99,-7.27,0,*5A
1537790542.46,17269,252.13,73292.8,-6.23,-8.17,-7.35,0,*53
1537790543.74,17270,252.13,73282.0,-6.23,-8.11,-7.35,0,*5D
1537790545.02,17271,252.13,73236.8,-6.23,-8.11,-7.35,0,*5C
1537790546.24,17272,252.13,73172.0,-6.23,-8.63,-7.87,0,*53
1537790547.47,17273,252.13,73220.3,-6.25,-8.67,-7.95,0,*53
1537790548.69,17274,252.13,73224.8,-6.25,-8.67,-7.99,0,*58
1537790549.93,17275,252.13,73208.3,-6.29,-8.17,-7.39,0,*58
1537790551.19,17276,252.13,73256.3,-6.29,-7.91,-7.05,0,*55
1537790552.4,17277,252.13,73248.3,-6.29,-7.49,-6.73,0,*51
1537790553.66,17278,252.13,73218.8,-6.25,-7.73,-6.93,0,*55
1537790554.89,17279,252.13,73262.5,-6.29,-7.87,-7.05,0,*5D
1537790556.11,17280,252.13,73236.0,-6.31,-7.65,-6.85,0,*57
1537790557.33,17281,252.13,73270.0,-6.29,-7.87,-7.15,0,*5B
1537790558.55,17282,252.13,73212.0,-6.25,-8.29,-7.61,0,*5C
1537790559.8,17283,252.13,73214.0,-6.29,-8.17,-7.35,0,*5D
1537790561.04,17284,252.13,73236.0,-6.29,-7.35,-6.47,0,*51
1537790562.31,17285,252.06,73218.3,-6.29,-7.65,-6.93,0,*5C
1537790563.55,17286,252.13,73184.0,-6.29,-8.33,-7.61,0,*5F
1537790564.74,17287,252.06,73196.3,-6.31,-8.21,-7.49,0,*5E
1537790565.96,17288,252.13,73212.0,-6.31,-8.17,-7.39,0,*53
1537790567.15,17289,252.06,73208.0,-6.31,-8.29,-7.53,0,*53
1537790568.37,17290,252.13,73210.3,-6.31,-8.45,-7.77,0,*57
1537790569.59,17291,252.06,73236.3,-6.31,-8.41,-7.73,0,*56
1537790570.84,17292,252.06,73240.3,-6.33,-8.75,-8.07,0,*5C
1537790572.07,17293,252.06,73244.0,-6.33,-8.89,-8.21,0,*5A
1537790573.32,17294,252.13,73232.0,-6.33,-8.85,-8.11,0,*52
1537790574.57,17295,252.06,73262.5,-6.37,-8.75,-8.07,0,*5F
1537790575.79,17296,252.06,73250.3,-6.37,-8.93,-8.17,0,*55
1537790577.01,17297,252.06,73194.8,-6.39,-8.71,-7.99,0,*5F
1537790578.24,17298,252.06,73246.5,-6.39,-8.45,-7.77,0,*57
1537790579.46,17299,252.13,73220.5,-6.39,-8.21,-7.39,0,*5E
1537790580.71,17300,252.06,73228.5,-6.39,-8.11,-7.39,0,*5C
1537790581.91,17301,252.06,73282.5,-6.39,-7.87,-7.19,0,*5F
1537790583.09,17302,252.06,73266.0,-6.39,-8.33,-7.53,0,*52
1537790584.32,17303,252.06,73222.5,-6.39,-8.41,-7.77,0,*50
1537790585.54,17304,252.06,73236.5,-6.39,-8.67,-7.91,0,*5B
1537790586.8,17305,252.06,73234.3,-6.41,-8.03,-7.27,0,*5A
1537790588.0,17306,252.06,73222.3,-6.39,-7.53,-6.85,0,*55
1537790589.19,17307,252.06,73278.8,-6.39,-7.49,-6.73,0,*56
1537790590.39,17308,252.06,73300.3,-6.39,-7.53,-6.81,0,*5F
1537790591.59,17309,252.06,73322.3,-6.39,-7.23,-6.55,0,*50
1537790592.81,17310,252.06,73336.0,-6.37,-7.49,-6.81,0,*53
1537790594.06,17311,252.06,73356.0,-6.35,-7.95,-7.39,0,*53
1537790595.33,17312,252.13,73292.3,-6.37,-8.51,-7.73,0,*5B
1537790596.58,17313,252.13,73324.8,-6.37,-8.51,-7.83,0,*55
1537790597.82,17314,252.13,73368.5,-6.37,-8.37,-7.69,0,*56
1537790599.05,17315,252.13,73296.5,-6.39,-8.71,-7.91,0,*5C
1537790600.31,17316,252.13,73338.8,-6.41,-8.81,-8.03,0,*5B
1537790601.56,17317,252.13,73288.8,-6.41,-8.71,-8.03,0,*55
1537790602.78,17318,252.13,73262.3,-6.39,-8.55,-7.91,0,*57
1537790604.03,17319,252.13,73246.5,-6.41,-8.33,-7.61,0,*56
1537790605.3,17320,252.13,73250.3,-6.41,-8.11,-7.35,0,*5D
1537790606.54,17321,252.13,73272.3,-6.41,-7.91,-7.19,0,*55
1537790607.81,17322,252.13,73248.3,-6.41,-7.99,-7.27,0,*53
1537790609.08,17323,252.13,73268.8,-6.41,-7.65,-6.97,0,*5B
1537790610.35,17324,252.13,73282.3,-6.41,-7.61,-6.97,0,*58
1537790611.62,17325,252.13,73298.8,-6.41,-7.73,-7.05,0,*50
1537790612.87,17326,252.13,73302.0,-6.39,-7.73,-7.05,0,*5C
1537790614.11,17327,252.13,73296.5,-6.41,-7.35,-6.55,0,*54
1537790615.33,17328,252.13,73292.5,-6.39,-7.27,-6.55,0,*57
1537790616.53,17329,252.13,73308.5,-6.39,-7.23,-6.39,0,*58
1537790617.74,17330,252.13,73326.5,-6.39,-7.39,-6.73,0,*55
1537790618.99,17331,252.13,73300.8,-6.37,-7.57,-6.89,0,*57
1537790620.23,17332,252.13,73304.5,-6.35,-8.03,-7.31,0,*5A
1537790621.47,17333,252.13,73290.5,-6.37,-7.95,-7.19,0,*53
1537790622.72,17334,252.13,73302.3,-6.37,-7.95,-7.23,0,*5D
1537790623.97,17335,252.06,73312.0,-6.37,-7.57,-6.89,0,*53
1537790625.19,17336,252.06,73312.8,-6.37,-7.49,-6.81,0,*57
1537790626.43,17337,252.06,73294.3,-6.37,-7.35,-6.77,0,*54
1537790627.7,17338,252.13,73290.5,-6.37,-7.35,-6.63,0,*5E
1537790628.91,17339,252.06,73288.3,-6.37,-7.23,-6.55,0,*5D
1537790630.14,17340,252.13,73290.5,-6.37,-7.23,-6.51,0,*57
1537790631.34,17341,252.06,73276.5,-6.35,-7.11,-6.35,0,*57
1537790632.56,17342,252.13,73282.3,-6.35,-7.01,-6.39,0,*59
1537790633.79,17343,252.06,73272.0,-6.35,-6.97,-6.31,0,*5E
1537790635.01,17344,252.13,73276.0,-6.33,-7.11,-6.35,0,*54
1537790636.27,17345,252.06,73280.0,-6.33,-6.97,-6.31,0,*5E
1537790637.48,17346,252.06,73266.3,-6.31,-7.05,-6.35,0,*51
1537790638.71,17347,252.06,73262.3,-6.31,-6.97,-6.35,0,*5A
1537790639.93,17348,252.06,73250.8,-6.31,-6.97,-6.35,0,*55
1537790641.13,17349,252.06,73264.5,-6.31,-7.11,-6.43,0,*5A
1537790642.33,17350,252.06,73276.0,-6.31,-7.15,-6.43,0,*56
1537790643.52,17351,252.06,73276.5,-6.31,-7.11,-6.35,0,*52
1537790644.72,17352,252.06,73276.8,-6.31,-7.11,-6.35,0,*51
1537790645.96,17353,252.06,73292.8,-6.29,-7.27,-6.73,0,*5E
1537790647.21,17354,252.06,73298.5,-6.29,-7.05,-6.31,0,*5F
1537790648.46,17355,252.06,73296.5,-6.25,-7.31,-6.63,0,*52
1537790649.68,17356,252.06,73304.3,-6.29,-7.15,-6.59,0,*52
1537790650.95,17357,252.06,73394.0,-6.29,-7.73,-6.97,0,*51
1537790652.21,17358,252.06,73380.8,-6.29,-8.03,-7.35,0,*5F
1537790653.45,17359,252.06,73340.3,-6.29,-8.21,-7.61,0,*5F
1537790654.67,17360,252.06,73292.5,-6.29,-8.45,-7.87,0,*5F
1537790655.87,17361,252.06,73286.5,-6.31,-8.59,-7.87,0,*5A
1537790657.12,17362,252.06,73286.3,-6.33,-8.71,-7.95,0,*52
1537790658.34,17363,252.06,73304.8,-6.35,-8.71,-8.03,0,*55
1537790659.57,17364,252.06,73314.3,-6.35,-8.71,-7.95,0,*52
1537790660.79,17365,252.06,73320.5,-6.35,-8.63,-8.03,0,*50
1537790662.03,17366,252.06,73324.0,-6.37,-8.51,-7.87,0,*53
1537790663.28,17367,252.13,73366.3,-6.37,-8.29,-7.61,0,*55
1537790664.5,17368,252.13,73376.5,-6.37,-8.17,-7.49,0,*5D
1537790665.74,17369,252.13,73372.8,-6.37,-8.51,-7.87,0,*5C
1537790666.99,17370,252.13,73400.3,-6.41,-8.59,-7.99,0,*52
1537790668.22,17371,252.13,73408.0,-6.39,-8.85,-8.11,0,*52
1537790669.43,17372,252.06,73282.3,-6.41,-8.97,-8.33,0,*5D
1537790670.65,17373,252.13,73196.8,-6.41,-8.93,-8.29,0,*53
1537790671.91,17374,252.06,73246.8,-6.41,-9.11,-8.45,0,*55
1537790673.13,17375,252.13,73296.3,-6.41,-9.01,-8.41,0,*51
1537790674.36,17376,252.13,73286.0,-6.45,-9.05,-8.45,0,*56
1537790675.57,17377,252.13,73322.5,-6.45,-8.97,-8.33,0,*5C
1537790676.8,17378,252.13,73278.3,-6.45,-8.85,-8.21,0,*53
1537790677.99,17379,252.13,73288.8,-6.47,-8.75,-8.17,0,*5A
1537790679.19,17380,252.13,73278.5,-6.47,-8.75,-8.17,0,*5C
1537790680.39,17381,252.13,73250.8,-6.47,-8.85,-8.21,0,*57
1537790681.61,17382,252.13,73218.5,-6.51,-8.67,-7.99,0,*53
1537790682.84,17383,252.13,73204.0,-6.51,-8.55,-7.99,0,*53
1537790684.06,17384,252.13,73234.3,-6.53,-9.05,-8.29,0,*56
1537790685.28,17385,252.13,73198.8,-6.53,-8.85,-8.25,0,*52
1537790686.5,17386,252.13,73230.5,-6.55,-8.81,-8.17,0,*52
1537790687.73,17387,252.13,73270.3,-6.53,-8.93,-8.17,0,*56
1537790688.95,17388,252.13,73224.5,-6.55,-8.59,-7.99,0,*50
1537790690.2,17389,252.13,73268.3,-6.53,-8.59,-8.11,0,*58
1537790691.42,17390,252.06,73278.5,-6.55,-8.55,-7.91,0,*5D
1537790692.62,17391,252.13,73218.5,-6.55,-8.33,-7.87,0,*5B
1537790693.84,17392,252.13,73242.0,-6.55,-8.33,-7.77,0,*57
1537790695.07,17393,252.13,73204.5,-6.55,-8.29,-7.65,0,*5E
1537790696.27,17394,252.13,73206.0,-6.55,-8.17,-7.49,0,*5A
1537790697.52,17395,252.13,73224.5,-6.57,-8.29,-7.69,0,*56
1537790698.71,17396,252.13,73234.0,-6.55,-8.17,-7.53,0,*53
1537790699.96,17397,252.06,73248.0,-6.53,-7.91,-7.23,0,*52
1537790701.2,17398,252.13,73274.0,-6.53,-7.39,-6.73,0,*5B
1537790702.44,17399,252.06,73278.3,-6.53,-7.35,-6.69,0,*5D
1537790703.67,17400,252.06,73276.5,-6.53,-7.19,-6.51,0,*5F
1537790704.87,17401,252.06,73280.5,-6.51,-7.19,-6.51,0,*5C
1537790706.1,17402,252.13,73278.0,-6.47,-6.97,-6.43,0,*5C
1537790707.29,17403,252.06,73290.0,-6.47,-6.85,-6.35,0,*5F
1537790708.52,17404,252.06,73256.0,-6.47,-7.01,-6.43,0,*54
1537790709.72,17405,252.06,73256.5,-6.47,-7.11,-6.43,0,*54
1537790710.94,17406,252.06,73258.5,-6.45,-7.15,-6.47,0,*55
1537790712.19,17407,252.06,73274.3,-6.45,-6.97,-6.35,0,*5A
1537790713.42,17408,252.06,73278.0,-6.43,-6.77,-6.19,0,*53
1537790714.67,17409,252.06,73272.0,-6.41,-6.81,-6.19,0,*59
1537790715.86,17410,252.06,73264.5,-6.39,-6.69,-6.05,0,*55
1537790717.09,17411,252.06,73304.5,-6.39,-6.81,-6.19,0,*5F
1537790718.32,17412,252.06,73314.0,-6.37,-7.01,-6.39,0,*59
1537790719.52,17413,252.06,73280.3,-6.39,-7.23,-6.55,0,*5C
1537790720.75,17414,252.06,73250.3,-6.37,-7.19,-6.51,0,*58
1537790721.97,17415,252.06,73254.3,-6.37,-7.87,-7.19,0,*53
1537790723.21,17416,252.06,73242.3,-6.37,-8.17,-7.57,0,*5C
1537790724.48,17417,252.06,73246.8,-6.37,-8.11,-7.43,0,*5E
1537790725.73,17418,252.06,73240.8,-6.37,-8.29,-7.73,0,*59
1537790726.95,17419,252.06,73224.8,-6.41,-8.45,-7.87,0,*58
1537790728.2,17420,252.06,73234.5,-6.41,-8.55,-7.99,0,*5C
1537790729.42,17421,252.06,73264.0,-6.43,-8.71,-7.95,0,*55
1537790730.67,17422,252.06,73254.8,-6.43,-7.95,-7.27,0,*5A
1537790731.86,17423,252.06,73250.3,-6.43,-7.53,-6.89,0,*54
1537790733.08,17424,252.06,73256.5,-6.43,-7.65,-7.11,0,*56
1537790734.35,17425,252.06,73266.0,-6.41,-7.61,-6.97,0,*5E
1537790735.59,17426,252.06,73266.3,-6.41,-7.39,-6.85,0,*53
1537790736.81,17427,252.06,73270.5,-6.43,-7.31,-6.59,0,*59
1537790738.0,17428,252.06,73236.8,-6.43,-7.53,-6.89,0,*5F
1537790739.27,17429,252.06,73236.0,-6.41,-7.99,-7.27,0,*5F
1537790740.54,17430,252.06,73272.0,-6.41,-7.91,-7.27,0,*5F
1537790741.82,17431,252.06,73240.8,-6.41,-8.11,-7.61,0,*5B
1537790743.06,17432,252.06,73310.5,-6.41,-8.33,-7.65,0,*5C
1537790744.3,17433,252.06,73280.8,-6.41,-8.33,-7.77,0,*5E
1537790745.54,17434,252.06,73254.8,-6.45,-8.33,-7.69,0,*52
1537790746.78,17435,252.06,73332.3,-6.45,-8.45,-7.91,0,*55
1537790747.98,17436,252.06,73298.8,-6.43,-8.45,-7.83,0,*53
1537790749.22,17437,252.06,73224.8,-6.45,-8.59,-8.03,0,*5E
1537790750.44,17438,252.06,73278.0,-6.45,-8.75,-8.21,0,*5F
1537790751.69,17439,252.06,73252.8,-6.45,-8.59,-7.95,0,*50
1537790752.92,17440,252.06,73290.8,-6.51,-8.63,-8.07,0,*56
1537790754.15,17441,252.06,73266.5,-6.51,-8.51,-7.87,0,*51
1537790755.39,17442,252.06,73282.5,-6.53,-8.41,-7.91,0,*56
1537790756.63,17443,252.06,73338.8,-6.53,-8.33,-7.65,0,*59
1537790757.87,17444,252.06,73326.0,-6.53,-8.33,-7.77,0,*5D
1537790759.13,17445,252.06,73312.5,-6.53,-8.17,-7.61,0,*5D
1537790760.35,17446,252.06,73288.8,-6.55,-8.25,-7.73,0,*5A
1537790761.58,17447,252.06,73264.0,-6.53,-8.41,-7.87,0,*54
1537790762.83,17448,252.06,73288.8,-6.53,-8.17,-7.65,0,*54
1537790764.07,17449,252.06,73306.8,-6.55,-8.03,-7.39,0,*5F
1537790765.34,17450,252.06,73276.5,-6.53,-7.99,-7.39,0,*5D
1537790766.59,17451,252.06,73280.3,-6.53,-7.65,-7.11,0,*55
1537790767.83,17452,252.06,73218.3,-6.53,-7.39,-6.85,0,*53
1537790769.08,17453,252.06,73262.3,-6.53,-7.77,-7.19,0,*5C
1537790770.33,17454,252.06,73274.5,-6.55,-7.77,-7.31,0,*57
1537790771.58,17455,252.06,73256.8,-6.53,-7.87,-7.31,0,*5F
1537790772.82,17456,252.06,73282.0,-6.51,-7.61,-7.05,0,*51
1537790774.06,17457,252.06,73290.0,-6.53,-7.39,-6.73,0,*5F
1537790775.28,17458,252.06,73290.0,-6.53,-7.23,-6.59,0,*53
1537790776.5,17459,252.06,73306.0,-6.51,-7.05,-6.55,0,*58
1537790777.73,17460,252.06,73322.3,-6.51,-7.05,-6.51,0,*56
1537790778.93,17461,252.06,73290.5,-6.47,-7.15,-6.51,0,*51
1537790780.14,17462,252.06,73296.0,-6.47,-7.27,-6.73,0,*53
1537790781.35,17463,252.06,73298.0,-6.47,-7.23,-6.59,0,*5E
1537790782.59,17464,252.06,73332.0,-6.45,-6.97,-6.43,0,*5E
1537790783.84,17465,252.06,73382.5,-6.45,-7.31,-6.77,0,*55
1537790785.08,17466,252.06,73256.8,-6.45,-7.43,-6.89,0,*52
1537790786.31,17467,252.06,73252.3,-6.45,-7.11,-6.43,0,*52
1537790787.53,17468,252.06,73274.0,-6.43,-6.97,-6.43,0,*54
1537790788.73,17469,252.06,73230.5,-6.43,-6.89,-6.35,0,*5B
1537790789.95,17470,252.06,73262.3,-6.41,-6.85,-6.31,0,*59
1537790791.17,17471,252.06,73252.8,-6.39,-6.73,-6.27,0,*59
1537790792.4,17472,252.06,73242.3,-6.39,-6.47,-5.89,0,*5A
1537790793.62,17473,252.06,73252.3,-6.39,-6.43,-5.81,0,*57
1537790794.86,17474,252.06,73240.8,-6.37,-6.77,-6.23,0,*52
1537790796.1,17475,252.06,73246.3,-6.37,-7.05,-6.43,0,*51
1537790797.32,17476,252.06,73240.8,-6.35,-7.27,-6.77,0,*57
1537790798.54,17477,252.06,73332.5,-6.35,-7.39,-6.77,0,*59
1537790799.75,17478,252.06,73308.8,-6.35,-7.39,-6.85,0,*5B
1537790800.99,17479,252.06,73352.8,-6.37,-7.35,-6.77,0,*59
1537790802.19,17480,252.06,73396.8,-6.35,-7.23,-6.55,0,*5A
1537790803.42,17481,252.06,73400.0,-6.35,-7.01,-6.31,0,*59
1537790804.61,17482,252.13,73410.0,-6.35,-6.73,-6.05,0,*59
1537790805.82,17483,252.13,73428.5,-6.35,-6.63,-5.97,0,*51
1537790807.07,17484,252.13,73428.5,-6.33,-6.85,-6.19,0,*5D
1537790808.32,17485,252.06,73386.0,-6.31,-6.93,-6.27,0,*54
1537790809.53,17486,252.06,73362.8,-6.31,-6.85,-6.23,0,*54
1537790810.72,17487,252.06,73334.5,-6.31,-6.69,-6.01,0,*57
1537790811.91,17488,252.06,73322.0,-6.31,-6.55,-6.01,0,*57
1537790813.12,17489,252.06,73356.5,-6.29,-6.59,-6.01,0,*53
1537790814.32,17490,252.06,73300.0,-6.25,-6.55,-5.97,0,*57
1537790815.54,17491,252.06,73276.8,-6.25,-6.63,-5.97,0,*53
1537790816.76,17492,252.06,73262.8,-6.25,-6.39,-5.73,0,*55
1537790818.04,17493,252.06,73212.5,-6.23,-6.27,-5.61,0,*5E
1537790819.28,17494,252.13,73238.0,-6.23,-6.39,-5.73,0,*55
1537790820.54,17495,252.06,73252.8,-6.23,-6.43,-5.89,0,*5C
1537790821.73,17496,252.13,73324.8,-6.21,-6.89,-6.35,0,*5F
1537790823.01,17497,252.13,73326.3,-6.23,-6.93,-6.23,0,*50
1537790824.23,17498,252.13,73322.5,-6.21,-7.05,-6.39,0,*58
1537790825.45,17499,252.13,73252.5,-6.21,-7.27,-6.59,0,*5F
1537790826.65,17500,252.13,73324.5,-6.21,-7.19,-6.51,0,*5B
1537790827.87,17501,252.13,73336.5,-6.21,-7.39,-6.77,0,*5C
1537790829.11,17502,252.13,73378.0,-6.21,-7.57,-7.05,0,*53
1537790830.35,17503,252.13,73314.5,-6.21,-7.91,-7.05,0,*58
1537790831.62,17504,252.13,73298.3,-6.23,-7.69,-7.01,0,*5E
1537790832.84,17505,252.13,73232.3,-6.23,-8.17,-7.49,0,*55
1537790834.07,17506,252.19,73248.0,-6.23,-8.41,-7.83,0,*53
1537790835.3,17507,252.13,73256.3,-6.25,-8.25,-7.57,0,*5F
1537790836.55,17508,252.13,73298.5,-6.25,-7.95,-7.35,0,*50
1537790837.79,17509,252.13,73274.3,-6.29,-7.91,-7.23,0,*5E
1537790839.03,17510,252.13,73244.0,-6.29,-7.91,-7.15,0,*53
1537790840.25,17511,252.13,73286.8,-6.29,-7.87,-7.15,0,*55
1537790841.5,17512,252.13,73296.5,-6.29,-7.77,-7.11,0,*5D
1537790842.69,17513,252.13,73302.0,-6.31,-8.17,-7.53,0,*5A
1537790843.88,17514,252.19,73312.5,-6.31,-8.29,-7.49,0,*5B
1537790845.1,17515,252.19,73298.0,-6.31,-8.17,-7.39,0,*50
1537790846.31,17516,252.19,73196.3,-6.31,-8.29,-7.73,0,*50
1537790847.57,17517,252.19,73290.8,-6.33,-8.75,-8.07,0,*56
1537790848.79,17518,252.19,73280.8,-6.33,-8.75,-8.21,0,*5D
1537790850.01,17519,252.19,73308.0,-6.35,-8.75,-8.07,0,*5E
1537790851.25,17520,252.25,73262.0,-6.37,-8.75,-7.99,0,*5E
1537790852.45,17521,252.25,73260.8,-6.35,-8.75,-8.17,0,*54
1537790853.67,17522,252.25,73266.3,-6.39,-8.67,-8.03,0,*5D
1537790854.91,17523,252.19,73258.3,-6.41,-8.59,-7.99,0,*52
1537790856.15,17524,252.25,73248.5,-6.41,-8.67,-7.99,0,*58
1537790857.4,17525,252.19,73258.8,-6.41,-8.41,-7.77,0,*5D
1537790858.64,17526,252.25,73262.0,-6.41,-8.33,-7.77,0,*5B
1537790859.89,17527,252.19,73250.3,-6.41,-8.41,-7.77,0,*5F
1537790861.11,17528,252.19,73258.8,-6.41,-8.21,-7.49,0,*5B
1537790862.38,17529,252.19,73258.8,-6.41,-8.03,-7.35,0,*51
1537790863.62,17530,252.19,73266.3,-6.41,-7.53,-6.97,0,*5A
1537790864.86,17531,252.19,73260.0,-6.43,-7.91,-7.27,0,*5D
1537790866.08,17532,252.19,73276.8,-6.41,-7.49,-6.85,0,*50
1537790867.3,17533,252.19,73272.8,-6.41,-7.11,-6.47,0,*52
1537790868.53,17534,252.19,73280.5,-6.41,-7.11,-6.55,0,*56
1537790869.76,17535,252.19,73294.8,-6.41,-7.19,-6.59,0,*53
1537790870.99,17536,252.19,73290.5,-6.41,-7.27,-6.69,0,*5E
1537790872.24,17537,252.19,73294.5,-6.41,-7.27,-6.73,0,*54
1537790873.46,17538,252.19,73260.0,-6.39,-7.27,-6.55,0,*50
1537790874.66,17539,252.19,73274.0,-6.39,-7.19,-6.55,0,*5C
1537790875.88,17540,252.19,73272.5,-6.39,-6.97,-6.43,0,*52
1537790877.09,17541,252.19,73252.3,-6.35,-6.77,-6.31,0,*54
1537790878.31,17542,252.19,73244.3,-6.35,-6.73,-6.19,0,*59
1537790879.51,17543,252.19,73244.0,-6.35,-6.85,-6.31,0,*5B
1537790880.74,17544,252.19,73242.0,-6.35,-6.73,-6.19,0,*5F
1537790881.98,17545,252.19,73214.5,-6.33,-6.97,-6.39,0,*50
1537790883.22,17546,252.19,73254.5,-6.33,-7.39,-6.77,0,*5C
1537790884.43,17547,252.19,73212.0,-6.31,-7.31,-6.77,0,*57
1537790885.66,17548,252.19,73258.5,-6.33,-7.15,-6.51,0,*58
1537790886.93,17549,252.19,73292.3,-6.33,-7.31,-6.63,0,*5E
1537790888.17,17550,252.19,73306.8,-6.33,-7.43,-6.85,0,*5B
1537790889.42,17551,252.19,73316.5,-6.33,-7.65,-7.15,0,*56
1537790890.66,17552,252.19,73392.5,-6.33,-7.77,-7.15,0,*56
1537790891.91,17553,252.19,73408.0,-6.33,-7.65,-7.11,0,*50
1537790893.19,17554,252.19,73396.8,-6.33,-7.57,-6.97,0,*59
1537790894.46,17555,252.19,73372.5,-6.33,-7.57,-6.97,0,*58
1537790895.71,17556,252.19,73324.0,-6.33,-7.77,-7.15,0,*52
1537790896.93,17557,252.19,73312.5,-6.33,-7.83,-7.19,0,*54
1537790898.18,17558,252.19,73290.8,-6.33,-7.57,-6.89,0,*5A
1537790899.43,17559,252.19,73324.0,-6.35,-7.57,-6.97,0,*52
1537790900.63,17560,252.19,73306.0,-6.35,-7.19,-6.59,0,*50
1537790901.88,17561,252.19,73244.0,-6.33,-7.43,-6.85,0,*59